Date,TemperatureHighF,TemperatureAvgF,TemperatureLowF,DewpointHighF,DewpointAvgF,DewpointLowF,HumidityHigh,HumidityAvg,HumidityLow,PressureMaxIn,PressureMinIn,WindSpeedMaxMPH,WindSpeedAvgMPH,GustSpeedMaxMPH,PrecipitationSumIn
2014-2-1,52,36,27,26,19,-100,78,53,26,0.00,40.00,5,2,12,0.02
2014-2-2,52,40,29,44,33,22,86,74,64,0.00,40.00,6,2,12,0.00
2014-2-3,41,34,28,35,30,21,98,89,72,0.00,40.00,5,2,10,0.64
2014-2-4,31,25,17,24,20,15,94,80,62,0.00,40.00,4,2,10,0.08
2014-2-5,40,31,25,34,27,15,95,84,59,0.00,40.00,14,5,30,0.71
2014-2-6,35,26,20,15,12,8,76,56,35,0.00,40.00,10,5,20,0.29
2014-2-7,36,27,20,15,11,7,63,52,36,0.00,40.00,8,5,16,0.18
2014-2-8,33,22,13,16,11,6,88,65,35,0.00,40.00,3,2,9,0.15
2014-2-9,28,24,19,25,19,13,95,82,67,0.00,40.00,7,2,17,0.01
2014-2-10,29,21,8,17,7,3,79,55,36,0.00,40.00,8,5,18,0.11
2014-2-11,33,14,4,6,3,0,85,63,31,0.00,40.00,4,2,11,0.05
2014-2-12,27,13,-1,14,3,-6,87,65,36,0.00,40.00,4,2,15,0.00
2014-2-13,32,24,16,30,21,13,94,87,77,0.00,40.00,9,4,22,0.00
2014-2-14,45,37,30,32,21,14,96,53,35,0.00,40.00,11,6,25,0.51
2014-2-15,36,30,20,32,21,-100,97,74,51,0.00,40.00,10,5,21,0.29
2014-2-16,29,24,18,23,13,5,92,64,49,0.00,40.00,10,4,20,0.01
2014-2-17,39,22,5,21,6,1,92,54,23,0.00,40.00,8,4,21,0.11
2014-2-18,54,36,22,27,22,16,93,64,27,0.00,40.00,12,5,29,0.12
2014-2-19,57,37,27,37,27,21,96,70,33,0.00,40.00,17,4,38,0.08
2014-2-20,53,38,26,29,26,22,94,65,32,0.00,40.00,7,2,17,0.01
2014-2-21,55,43,36,42,28,19,96,60,26,0.00,40.00,10,4,22,0.08
2014-2-22,58,45,31,28,16,-100,76,35,17,0.00,40.00,11,5,24,0.03
2014-2-23,59,38,29,34,27,21,85,67,31,0.00,40.00,5,3,14,0.00
2014-2-24,36,31,25,27,9,4,72,40,28,0.00,40.00,12,8,27,0.00
2014-2-25,34,26,20,16,11,4,68,52,37,0.00,40.00,10,4,22,0.00
2014-2-26,28,24,13,17,8,1,74,51,31,0.00,40.00,9,5,21,0.00
2014-2-27,28,19,9,10,2,-7,74,47,29,0.00,40.00,16,7,32,0.00
2014-2-28,31,14,-2,-3,-6,-11,78,43,19,0.00,40.00,5,3,11,0.00